Home   Weather   Oslo   Past weeks
Flag for Norway

Past Weather in Oslo, Norway — Yesterday and Last 2 Weeks

Now
61 °F

Cool.


Feels Like: 61 °F
Forecast: 69 / 56 °F
Wind: 1 mph from Southwest

Location: Oslo-Blindern

Current Time: Jul 22, 2019 at 1:51:53 am

Latest Report: Jul 22, 2019 at 12:00 am


Visibility: 22 mi

Pressure: 29.88 "Hg

Humidity: 98%

Dew Point: 61 °F

Location of OsloLocation

Past Weather in Oslo — Graph

°F

Oslo Temperature Yesterday

Maximum temperature yesterday: 66 °F (at 4:00 pm)
Minimum temperature yesterday: 60 °F (at 7:00 am)
Average temperature yesterday: 62 °F

High & Low Weather Summary for the Past Weeks

 TemperatureHumidityPressure
High80 °F (Jul 11, 4:00 pm)98% (Jul 21, 7:00 am)29.98 "Hg (Jul 21, 7:00 am)
Low51 °F (Jul 16, 6:00 am)30% (Jul 10, 3:00 pm)29.54 "Hg (Jul 7, 12:00 am)
Average63 °F68%29.86 "Hg
* Reported Jul 7 12:00 am — Jul 22 12:00 am, Oslo. Weather by CustomWeather, © 2019

Note: Actual official high and low records may vary slightly from our data, if they occured in-between our weather recording intervals... More about our weather records

Advertising

Oslo Weather History for the Previous 24 Hours

Scroll right to see more
 ConditionsComfort  
Time TempWeatherWind HumidityBarometerVisibility
12:00 am
Mon, Jul 22
61 °FCool.1 mph98%29.88 "Hg22 mi
11:00 pm
Sun, Jul 21
61 °FLow clouds.1 mph96%29.87 "Hg40 mi
10:00 pm62 °FLight rain. Cloudy.3 mph94%29.86 "Hg28 mi
9:00 pm63 °FMild.3 mph90%29.85 "Hg31 mi
8:00 pm64 °FMild.5 mph87%29.83 "Hg28 mi
7:00 pm65 °FRain showers. Cloudy.3 mph89%29.81 "Hg28 mi
6:00 pm63 °FRain showers. Cloudy.5 mph89%29.80 "Hg10 mi
5:00 pm65 °FLow clouds.5 mph82%29.80 "Hg16 mi
4:00 pm66 °FRain showers. Cloudy.5 mph79%29.80 "Hg31 mi
2:00 pmN/ALow clouds.N/AN/AN/A16 mi
1:00 pm62 °FLots of rain. Cloudy.2 mph96%29.79 "Hg9 mi
12:00 pm61 °FRain showers. Cloudy.3 mph96%29.79 "Hg18 mi
11:00 am60 °FLight rain. Low clouds.3 mph96%29.78 "Hg6 mi
10:00 am60 °FDrizzle. Cloudy.2 mph97%29.78 "Hg2 mi
9:00 am61 °FRain. Cloudy.2 mph97%29.77 "Hg6 mi
8:00 am61 °FLight rain. Overcast.2 mph98%29.77 "Hg6 mi
7:00 am60 °FRain. Cloudy.2 mph98%29.78 "Hg4 mi
6:00 am60 °FRain. Cloudy.1 mph97%29.79 "Hg1 mi
5:00 am61 °FLight rain. Cloudy.1 mph88%29.79 "Hg9 mi
4:00 am62 °FCool.1 mph86%29.80 "Hg31 mi
3:00 am64 °FMild.2 mph75%29.82 "Hg31 mi
2:00 am65 °FMild.2 mph68%29.83 "Hg31 mi
1:00 am65 °FMild.2 mph67%29.83 "Hg31 mi
Weather by CustomWeather, © 2019

See weather overview